Shawnee Mission, KS

10:32 AM CDT on August 25, 2016 (GMT -0500)
Johnson County Executive

Weather History for KOJC - May, 2012

Change the Weather History Date:

Tuesday, May 22, 2012

  Actual Average Record
Temperature  
Mean Temperature 64 °F 67 °F  
Max Temperature 78 °F 76 °F 95 °F (1956)
Min Temperature 50 °F 57 °F 38 °F (1963)
Degree Days  
Heating Degree Days 1 2  
Month to date heating degree days 13 81  
Since 1 July heating degree days 3802 4912  
Cooling Degree Days 0 4  
Month to date cooling degree days 92 44  
Year to date cooling degree days 174 62  
Growing Degree Days 14 (Base 50)    
Moisture  
Dew Point 45 °F    
Average Humidity 56    
Maximum Humidity 80    
Minimum Humidity 31    
Precipitation  
Precipitation 0.00 in 0.18 in 1.40 in (1969)
Month to date precipitation 2.70 3.93  
Year to date precipitation 9.02 13.24  
Sea Level Pressure  
Sea Level Pressure 29.97 in    
Wind  
Wind Speed 8 mph (SSE)    
Max Wind Speed 17 mph    
Max Gust Speed 25 mph    
Visibility 10 miles    
Events      
T = Trace of Precipitation, MM = Missing Value Source: NWS Daily Summary

Daily Weather History Graph

Daily Weather History Graph

Search for Another Location

Airport or City:

Trip Planner

Search our weather history database for the weather conditions in past years. The results will help you decide how hot, cold, wet, or windy it might be!

Date:

Astronomy

May. 22, 2012 Rise Set
Actual Time 6:00 AM CDT 8:31 PM CDT
Civil Twilight 5:30 AM CDT 9:01 PM CDT
Nautical Twilight 4:52 AM CDT 9:39 PM CDT
Astronomical Twilight 4:09 AM CDT 10:22 PM CDT
Moon 7:12 AM CDT (5/22) 10:09 PM CDT (5/22)
Length of Visible Light 15h 31m
Length of Day
14h 30m
Waxing Crescent, 3% of the Moon is Illuminated
May 22
Waxing Crescent
May 28
First Quarter
Jun 4
Full
Jun 11
Last Quarter
Jun 19
New

Hourly Weather History & Observations

Time (CDT) Temp. Dew Point Humidity Pressure Visibility Wind Dir Wind Speed Gust Speed Precip Events Conditions
12:53 AM 59.0 °F 43.0 °F 55% 30.10 in 10.0 mi ESE 4.6 mph - N/A   Clear
1:53 AM 54.0 °F 46.9 °F 77% 30.09 in 10.0 mi SE 3.5 mph - N/A   Clear
2:53 AM 55.0 °F 45.0 °F 69% 30.09 in 10.0 mi SSE 3.5 mph - N/A   Clear
3:53 AM 55.0 °F 45.0 °F 69% 30.09 in 10.0 mi Calm Calm - N/A   Clear
4:53 AM 52.0 °F 44.1 °F 74% 30.08 in 10.0 mi Calm Calm - N/A   Clear
5:53 AM 50.0 °F 44.1 °F 80% 30.07 in 10.0 mi Calm Calm - N/A   Clear
6:53 AM 53.1 °F 44.1 °F 71% 30.08 in 10.0 mi Calm Calm - N/A   Clear
7:53 AM 57.0 °F 46.9 °F 69% 30.06 in 10.0 mi SSE 4.6 mph - N/A   Scattered Clouds
8:53 AM 64.0 °F 46.9 °F 54% 30.05 in 10.0 mi South 8.1 mph - N/A   Clear
9:53 AM 68.0 °F 43.0 °F 40% 30.04 in 10.0 mi South 9.2 mph - N/A   Clear
10:53 AM 70.0 °F 44.1 °F 39% 30.03 in 10.0 mi South 11.5 mph - N/A   Clear
11:53 AM 72.0 °F 43.0 °F 35% 30.02 in 10.0 mi South 11.5 mph 18.4 mph N/A   Clear
12:53 PM 73.9 °F 45.0 °F 35% 29.98 in 10.0 mi SE 12.7 mph 21.9 mph N/A   Clear
1:53 PM 75.0 °F 45.0 °F 34% 29.96 in 10.0 mi South 11.5 mph 18.4 mph N/A   Clear
2:53 PM 75.9 °F 45.0 °F 33% 29.93 in 10.0 mi South 13.8 mph 19.6 mph N/A   Clear
3:53 PM 77.0 °F 45.0 °F 32% 29.91 in 10.0 mi South 9.2 mph 18.4 mph N/A   Clear
4:53 PM 77.0 °F 44.1 °F 31% 29.88 in 10.0 mi SSE 13.8 mph - N/A   Clear
5:53 PM 77.0 °F 44.1 °F 31% 29.86 in 10.0 mi South 15.0 mph - N/A   Clear
6:53 PM 75.0 °F 45.0 °F 34% 29.84 in 10.0 mi South 12.7 mph - N/A   Clear
7:53 PM 72.0 °F 46.9 °F 41% 29.82 in 10.0 mi SSE 6.9 mph - N/A   Clear
8:53 PM 68.0 °F 46.0 °F 45% 29.81 in 10.0 mi SSE 8.1 mph - N/A   Clear
9:53 PM 66.0 °F 46.9 °F 50% 29.80 in 10.0 mi SSE 8.1 mph - N/A   Clear
10:53 PM 64.9 °F 48.0 °F 54% 29.80 in 10.0 mi SE 8.1 mph - N/A   Clear
11:53 PM 64.9 °F 48.0 °F 54% 29.78 in 10.0 mi SSE 9.2 mph - N/A   Clear